GSAT-8

Last updated on Wed Jul 02 2025 00:02:45 GMT+0000 (Coordinated Universal Time)

1 37605U 11022A 25182.58670862 .00000088 00000+0 00000+0 0 9991 2 37605 1.2244 86.3722 0002083 175.6965 284.0890 1.00270726 49702
UTC large
Height (km)
Speed (km/s)
/
Latitude / Longitude
Inclination (degrees)
Orbital Period (minutes)
Azimuth
Elevation
Range (km)
Doppler Factor

Next 0 passes for location: London (51.5072 / 0.1276)

Sorry there are no passes over London.